IZ1MEU-13 Weather Reports


Display with metric or nautical units.
time (UTC)temp
F
wind
direction
speed
MPH
gust
MPH
rain 1hr
in
rain 24hr
in
rain mn
in
humidity
%
barometer
mb
20260507092104 58 0.0 0.0 0.00 0.00 0.00 56 1016.5
20260507090100 57 0.0 0.0 0.00 0.00 0.00 60 1016.6
20260507084056 57 0.0 0.0 0.00 0.00 0.00 60 1016.3
20260507082052 56 0.0 0.0 0.00 0.00 0.00 62 1016.3
20260507080048 55 0.0 0.0 0.00 0.00 0.00 64 1016.1
20260507074043 53 0.0 0.0 0.00 0.00 0.00 65 1016.0
20260507072039 52 0.0 0.0 0.00 0.00 0.00 67 1016.0
20260507070035 52 0.0 0.0 0.00 0.00 0.00 66 1015.8
20260507064031 51 0.0 0.0 0.00 0.00 0.00 67 1015.5
20260507062026 52 0.0 0.0 0.00 0.00 0.00 66 1015.5
20260507060022 52 0.0 0.0 0.00 0.00 0.00 66 1015.3
20260507054018 52 0.0 0.0 0.00 0.00 0.00 66 1015.0
20260507052013 52 0.0 0.0 0.00 0.00 0.00 66 1014.6
20260507050009 52 0.0 0.0 0.00 0.00 0.00 66 1014.4
20260507044005 52 0.0 0.0 0.00 0.00 0.00 65 1014.3
20260507042000 52 0.0 0.0 0.00 0.00 0.00 65 1014.2
20260507035956 52 0.0 0.0 0.00 0.00 0.00 65 1014.1
20260507033951 52 0.0 0.0 0.00 0.00 0.00 65 1014.1
20260507031947 52 0.0 0.0 0.00 0.00 0.00 65 1013.9
20260507025942 52 0.0 0.0 0.00 0.00 0.00 65 1013.9
20260507023938 52 0.0 0.0 0.00 0.00 0.00 65 1013.9
20260507021934 52 0.0 0.0 0.00 0.00 0.00 65 1013.9
20260507015929 52 0.0 0.0 0.00 0.00 0.00 65 1013.9
20260507013925 53 0.0 0.0 0.00 0.00 0.00 65 1013.5
20260507011920 53 0.0 0.0 0.00 0.00 0.00 65 1013.4
20260507005916 52 0.0 0.0 0.00 0.00 0.00 65 1013.3
20260507003911 53 0.0 0.0 0.00 0.00 0.00 65 1013.3
20260507001907 53 0.0 0.0 0.00 0.00 0.00 65 1013.4
20260506235903 53 0.0 0.0 0.00 0.00 0.00 66 1013.4
20260506234842 53 0.0 0.0 0.00 0.00 0.00 65 1013.5
20260506232838 53 0.0 0.0 0.00 0.00 0.00 65 1013.3
20260506230833 53 0.0 0.0 0.00 0.00 0.00 65 1013.0
20260506224829 53 0.0 0.0 0.00 0.00 0.00 64 1012.7
20260506222824 53 0.0 0.0 0.00 0.00 0.00 64 1012.7
20260506220820 53 0.0 0.0 0.00 0.00 0.00 66 1012.8
20260506214816 53 0.0 0.0 0.00 0.00 0.00 66 1012.6
20260506212811 53 0.0 0.0 0.00 0.00 0.00 66 1012.4
20260506210807 53 0.0 0.0 0.00 0.00 0.00 67 1012.3
20260506204802 53 0.0 0.0 0.00 0.00 0.00 68 1012.4
20260506202758 52 0.0 0.0 0.00 0.00 0.00 70 1011.5
20260506200754 52 0.0 0.0 0.00 0.00 0.00 70 1011.0
20260506194749 52 0.0 0.0 0.00 0.00 0.00 69 1010.8
20260506192745 52 0.0 0.0 0.00 0.00 0.00 68 1010.3
20260506190741 53 0.0 0.0 0.00 0.00 0.00 66 1010.1
20260506184737 56 0.0 0.0 0.00 0.00 0.00 61 1010.3
20260506182732 56 0.0 0.0 0.00 0.00 0.00 61 1009.2
20260506180728 58 0.0 0.0 0.00 0.00 0.00 60 1008.8
20260506174724 59 0.0 0.0 0.00 0.00 0.00 60 1008.7
20260506172720 59 0.0 0.0 0.00 0.00 0.00 59 1008.5
20260506170715 60 0.0 0.0 0.00 0.00 0.00 57 1008.2
20260506164711 59 0.0 0.0 0.00 0.00 0.00 55 1008.1
20260506162707 60 0.0 0.0 0.00 0.00 0.00 53 1008.0
20260506160703 62 0.0 0.0 0.00 0.00 0.00 52 1008.0
20260506154658 61 0.0 0.0 0.00 0.00 0.00 51 1008.0
20260506152654 62 0.0 0.0 0.00 0.00 0.00 50 1008.0
20260506150650 67 0.0 0.0 0.00 0.00 0.00 45 1007.8
20260506144646 68 0.0 0.0 0.00 0.00 0.00 45 1007.8
20260506142641 68 0.0 0.0 0.00 0.00 0.00 44 1007.9
20260506140637 68 0.0 0.0 0.00 0.00 0.00 45 1008.1
20260506134633 69 0.0 0.0 0.00 0.00 0.00 45 1008.4
20260506132629 70 0.0 0.0 0.00 0.00 0.00 47 1008.5
20260506130624 68 0.0 0.0 0.00 0.00 0.00 49 1008.6
20260506124620 67 0.0 0.0 0.00 0.00 0.00 49 1008.7
20260506122616 68 0.0 0.0 0.00 0.00 0.00 49 1008.6
20260506120612 66 0.0 0.0 0.00 0.00 0.00 51 1008.7
20260506114607 65 0.0 0.0 0.00 0.00 0.00 50 1008.8
20260506112603 66 0.0 0.0 0.00 0.00 0.00 51 1008.9
20260506110559 64 0.0 0.0 0.00 0.00 0.00 54 1009.1
20260506104555 63 0.0 0.0 0.00 0.00 0.00 56 1009.3
20260506102550 61 0.0 0.0 0.00 0.00 0.00 57 1009.5
20260506100546 60 0.0 0.0 0.00 0.00 0.00 58 1009.5
20260506094542 60 0.0 0.0 0.00 0.00 0.00 58 1009.7